Location: ??????
(42.0089°N, 44.3281°E)
Time: 11:55:25
(UTC+00:00)

Okean 1-7 Rocket - Visible Passes

Search period start: 29 May 2022 00:00
Search period end: 08 June 2022 00:00
Orbit: 615 x 650 km, 82.5° (Epoch: 28 May)

Date Brightness Start Highest point End Pass type
(mag) Time Alt. Az. Time Alt. Az. Time Alt. Az.
29 May 3.6 00:39:06 10° SSW 00:43:30 72° W 00:47:54 10° N visible
29 May 5.9 23:24:02 10° SE 23:27:13 20° E 23:30:25 10° NE visible
30 May 4.7 23:44:25 10° SSE 23:48:32 40° E 23:52:39 10° NNE visible
01 Jun 3.6 00:06:00 13° S 00:09:58 86° E 00:14:23 10° N visible
01 Jun 6.1 22:51:13 10° ESE 22:53:48 15° E 22:56:23 10° NE visible
02 Jun 4.0 00:27:42 12° SSW 00:31:31 44° WNW 00:35:45 10° N visible
02 Jun 5.1 23:11:57 14° SSE 23:15:04 31° E 23:18:55 10° NNE visible
03 Jun 5.0 00:49:46 10° SW 00:53:13 22° WNW 00:56:42 10° NNW visible
03 Jun 3.8 23:33:36 21° S 23:36:27 65° E 23:40:48 10° NNE visible
04 Jun 6.2 22:18:50 10° ESE 22:20:24 12° E 22:21:58 10° ENE visible
04 Jun 3.7 23:55:14 22° SSW 23:57:58 59° W 00:02:18 10° N visible
05 Jun 5.4 22:39:24 16° SE 22:41:37 24° E 22:45:07 10° NE visible
06 Jun 4.7 00:16:50 16° SW 00:19:36 28° WNW 00:23:26 10° NNW visible
06 Jun 4.2 23:00:59 28° SSE 23:02:57 49° E 23:07:11 10° NNE visible
07 Jun 5.5 00:38:54 10° WSW 00:41:24 15° WNW 00:43:54 10° NW visible
07 Jun 3.5 23:22:33 34° SSW 23:24:25 78° W 23:28:49 10° N visible
